[Iaude] MPEC X240: 2023 XU10 [a=1.56,e=0.38,i=2.1,H=27.6]

mpec at marsden.cfa.harvard.edu mpec at marsden.cfa.harvard.edu
Tue Dec 12 02:48:09 EST 2023


M.P.E.C. 2023-X240                            Issued 2023 December 12, 07:46 UT

     The Minor Planet Electronic Circulars contain information on unusual
         minor planets, routine data on comets and natural satellites,
         and occasional editorial announcements.  They are published
    on behalf of Division F of the International Astronomical Union by the
          Minor Planet Center, Smithsonian Astrophysical Observatory,
                          Cambridge, MA 02138, U.S.A.
			  
             Prepared using the Tamkin Foundation Computer Network

                              MPC at CFA.HARVARD.EDU
            URL https://www.minorplanetcenter.net/    ISSN 1523-6714

                                   2023 XU10                                    


Observations:
     K23X10U 1C2023 12 10.18485 05 15 55.17 +51 12 33.7          20.2 GVEX240G96
     K23X10U 1C2023 12 10.19542 05 16 19.50 +51 09 34.4          20.1 GVEX240G96
     K23X10U* C2023 12 11.26948305 51 31.086+46 00 03.78         19.90GVEX240V00
     K23X10U  C2023 12 11.27469805 51 38.322+45 58 41.99         21.46GVEX240V00
     K23X10U  C2023 12 11.27990505 51 45.551+45 57 19.58         20.55GVEX240V00
     K23X10U  C2023 12 11.28511005 51 52.718+45 55 57.58               VEX240V00
     K23X10U  C2023 12 11.31358305 52 29.291+45 48 13.42         20.0 GVEX240H01
     K23X10U  C2023 12 11.31704405 52 33.987+45 47 17.76         20.0 GVEX240H01
     K23X10U  C2023 12 11.33117005 52 53.114+45 43 29.43         20.2 GVEX240H01
     K23X10U  C2023 12 11.33477505 52 57.978+45 42 30.93         20.3 GVEX240H01
     K23X10U KC2023 12 11.33661505 53 02.270+45 42 12.00         19.62GVEX240I52
     K23X10U KC2023 12 11.33997005 53 06.830+45 41 16.80               VEX240I52
     K23X10U KC2023 12 11.34162705 53 09.050+45 40 50.60         20.45GVEX240I52
     K23X10U KC2023 12 11.45986005 55 46.360+45 08 17.60         20.18GVEX240I52
     K23X10U KC2023 12 11.46151805 55 48.620+45 07 49.40         20.26GVEX240I52
     K23X10U KC2023 12 11.46483705 55 53.010+45 06 53.60         20.10GVEX240I52
     K23X10U KC2023 12 12.24641606 12 47.29 +41 53 52.3          20.8 GVEX240H21
     K23X10U KC2023 12 12.24921106 12 49.95 +41 53 14.2          20.8 GVEX240H21
     K23X10U KC2023 12 12.25480406 12 55.23 +41 51 57.7          20.8 GVEX240H21

Observer details:
G96 Mt. Lemmon Survey.  Observer D. Rankin.  Measurers B. Gray, D. Rankin, F.
    C. Shelly.  1.5-m reflector + 10K CCD.
H01 Magdalena Ridge Observatory, Socorro.  Observers W. H. Ryan, E. V. Ryan.
    Measurer W. H. Ryan.  2.4-m f/8.9 Ritchey-Chretien + CCD.
H21 Astronomical Research Observatory, Westfield.  Observer R. Holmes.
    Measurers T. Linder, R. Holmes, L. Horn.  0.76-m f/3.0 astrograph + CCD.
I52 Steward Observatory, Mt. Lemmon Station.  Observer G. J. Leonard.
    Measurers E. C. Beshore, D. Fay, J. B. Fazekas, D. C. Fuls, A. R. Gibbs,
    A. D. Grauer, H. Groeller, J. K. Hogan, R. A. Kowalski, S. M. Larson, G.
    J. Leonard, D. Rankin, R. L. Seaman, F. C. Shelly, K. W. Wierzchos.  1.0-m
    prime focus + CCD.
V00 Kitt Peak-Bok.  Observer C. Lejoly.  Measurers M. J. Brucker, C. E.
    Woodward, D. Fay, J. B. Fazekas, D. C. Fuls, A. R. Gibbs, H. Groeller, J.
    K. Hogan, R. A. Kowalski, S. M. Larson, C. Lejoly, G. J. Leonard, R. A.
    Mastaler, R. S. McMillan, D. Rankin, R. L. Seaman, A. Serrano, F. C.
    Shelly, K. W. Wierzchos.  2.25-m reflector + 4x4K mosaic CCD.

Orbital elements:
2023 XU10                                                Earth MOID = 0.0137 AU
Epoch 2023 Sept. 13.0 TT = JDT 2460200.5                MPC                     
M 327.54086              (2000.0)            P               Q                  
n   0.50406517     Peri.  136.28117     +0.65056900     -0.75858552             
a   1.5636693      Node   273.10015     +0.68644353     +0.60773693             
e   0.3795715      Incl.    2.07565     +0.32489269     +0.23495496             
P   1.96           H   27.63          G   0.15           U   8                  
Residuals in seconds of arc
231210 G96  0.3-  0.2+    231211 H01  0.1-  0.0     231211 I52  0.3+  0.0
231210 G96  0.4+  0.1-    231211 H01  0.1-  0.0     231211 I52  0.1-  0.1-
231211 V00  0.0   0.0     231211 H01  0.1-  0.0     231212 H21  0.0   0.1-
231211 V00  0.2-  0.2+    231211 I52  0.5-  0.2+    231212 H21  0.1+  0.1+
231211 V00  0.1-  0.1-    231211 I52  0.0   0.7-    231212 H21  0.0   0.1+
231211 V00  0.3-  0.0     231211 I52  0.0   0.1-
231211 H01  0.0   0.1-    231211 I52  0.2-  0.3+

Ephemeris:
2023 XU10                a,e,i = 1.56, 0.38, 2                   q = 0.9701
Date    TT    R. A. (2000) Decl.     Delta      r    Elong.  Phase     V
2023 11 12    20 08 31.0 -02 37 24   0.09032 0.9713    75.5    99.4    25.9
...
2023 11 27    20 42 13.6 +10 26 49   0.03929 0.9769    74.2   103.6    24.4
...
2023 12 05    22 43 13.1 +46 03 15   0.01749 0.9905   105.9    73.2    21.4
...
2023 12 11    05 43 50.1 +47 13 19   0.02249 1.0052   154.7    24.7    20.5
2023 12 12    06 07 59.9 +42 52 02   0.02522 1.0080   157.2    22.3    20.7
2023 12 13    06 24 48.9 +39 10 53   0.02819 1.0109   158.6    20.9    20.9
...
2023 12 19    07 07 10.5 +26 41 24   0.04865 1.0301   161.0    18.1    22.1
...
2023 12 27    07 21 45.9 +20 32 17   0.07928 1.0604   165.4    13.5    23.0
...
2024 01 11    07 26 36.0 +16 55 08   0.1454  1.1284   175.0     4.4    24.1

A. U. Tomatic                (C) Copyright 2023 MPC           M.P.E.C. 2023-X240





More information about the Iaude mailing list